Flag Weather past 2 weeks in Gdynia, Poland

Now
25 °F

Ice fog.


Feels Like: 15 °F
Forecast: 28 / 32 °F
Wind: 9 mph from Southeast

Location: Gdansk-Rebiechowo

Current Time: Nov 28, 2014 at 9:49:29 AM

Latest Report: Nov 28, 2014 at 9:00 AM


Visibility: 3 mi

Pressure: 30.30 "Hg

Humidity: 100%

Dew point: 25 °F

Location of GdyniaLocation

Historic Weather in Gdynia — Graph

°F

Gdynia temperature yesterday

Maximum temperature yesterday: 37 °F (at 12:00 AM)
Minimum temperature yesterday: 30 °F (at 4:30 AM)
Average temperature yesterday: 33 °F

Past Weeks' High & Low Weather Summary

 TemperatureHumidityPressure
High46 °F (Nov 14, 11:00 AM)100% (Nov 13, 8:00 AM)30.42 "Hg (Nov 13, 8:00 AM)
Low25 °F (Nov 28, 6:30 AM)70% (Nov 24, 1:00 PM)29.86 "Hg (Nov 16, 12:00 PM)
Average38 °F96%30.17 "Hg
* Reported Nov 13 8:00 AM — Nov 28 8:30 AM, Gdynia, Weather by CustomWeather, © 2014

Note: Actual official high and low records may vary slightly from our data, if they occured in-between our weather recording intervals... More about our weather records

Advertising

Gdynia weather history for previous 24 hours

 ConditionsComfort  
Time TempWeatherWind HumidityBarometerVisibility
8:30 AM
Nov 28
25 °FIce fog.10 mph100%30.30 "Hg3 mi
8:00 AM25 °FIce fog.12 mph100%30.27 "Hg3 mi
7:30 AM25 °FIce fog.9 mph100%30.27 "Hg3 mi
7:00 AM25 °FIce fog.9 mph100%30.27 "Hg2 mi
6:30 AM25 °FIce fog.8 mph100%30.27 "Hg1 mi
6:00 AM27 °FIce fog.10 mph100%30.24 "Hg2 mi
5:30 AM27 °FIce fog.10 mph100%30.24 "Hg2 mi
5:00 AM27 °FIce fog.10 mph100%30.24 "Hg1 mi
4:30 AM27 °FIce fog.10 mph100%30.24 "Hg1 mi
4:00 AM28 °FIce fog.10 mph100%30.24 "Hg1 mi
3:30 AM28 °FIce fog.9 mph100%30.24 "Hg3 mi
3:00 AM28 °FPassing clouds.9 mph100%30.21 "Hg4 mi
2:30 AM28 °FPassing clouds.10 mph100%30.21 "Hg4 mi
2:00 AM30 °FIce fog.8 mph93%30.24 "Hg2 mi
1:30 AM30 °FIce fog.8 mph93%30.24 "Hg2 mi
1:00 AM30 °FIce fog.8 mph93%30.24 "Hg2 mi
12:30 AM30 °FIce fog.7 mph100%30.21 "Hg2 mi
12:00 AM32 °FIce fog.6 mph93%30.21 "Hg2 mi
11:30 PM
Nov 27
32 °FIce fog.8 mph93%30.21 "Hg2 mi
11:00 PM32 °FIce fog.7 mph93%30.21 "Hg2 mi
10:30 PM32 °FIce fog.7 mph100%30.21 "Hg2 mi
10:00 PM32 °FIce fog.8 mph100%30.21 "Hg2 mi
9:30 PM32 °FIce fog.6 mph100%30.21 "Hg2 mi
9:00 PM32 °FIce fog.8 mph100%30.21 "Hg2 mi
8:30 PM32 °FIce fog.9 mph100%30.21 "Hg2 mi
8:00 PM32 °FIce fog.6 mph100%30.21 "Hg1 mi
7:30 PM32 °FIce fog.8 mph100%30.21 "Hg1 mi
7:00 PM32 °FIce fog.7 mph100%30.18 "Hg1 mi
6:30 PM34 °FFog.8 mph100%30.18 "Hg1 mi
6:00 PM34 °FFog.7 mph100%30.18 "Hg1 mi
5:30 PM34 °FFog.9 mph100%30.18 "Hg1 mi
5:00 PM34 °FFog.8 mph100%30.18 "Hg1 mi
4:30 PM34 °FFog.6 mph100%30.18 "Hg1 mi
4:00 PM34 °FFog.7 mph100%30.18 "Hg0 mi
3:30 PM34 °FFog.6 mph100%30.18 "Hg0 mi
3:00 PM34 °FFog.7 mph100%30.18 "Hg1 mi
2:30 PM34 °FFog.7 mph100%30.18 "Hg1 mi
2:00 PM34 °FFog.7 mph100%30.18 "Hg1 mi
1:30 PM34 °FFog.7 mph100%30.18 "Hg1 mi
1:00 PM36 °FFog.6 mph100%30.18 "Hg0 mi
12:30 PM36 °FFog.6 mph100%30.18 "Hg0 mi
12:00 PM36 °FFog.3 mph100%30.18 "Hg0 mi
11:30 AM36 °FSleet. Cloudy.3 mph100%30.18 "Hg1 mi
11:00 AM36 °FLight rain. Fog.2 mph100%30.18 "Hg1 mi
10:30 AM36 °FFog.3 mph100%30.18 "Hg1 mi
10:00 AM36 °FFog.2 mph100%30.18 "Hg1 mi
9:30 AM34 °FFog.1 mph100%30.18 "Hg1 mi
9:00 AM34 °FFog.1 mph100%30.18 "Hg1 mi
Weather by CustomWeather, © 2014

See weather overviewHow to use our weather pages